Flag Weather past 2 weeks in Khon Kaen, Thailand

Now
81 °F

Clear.


Feels Like: 84 °F
Forecast: 76 / 92 °F
Wind: No wind

Location: Khon Kaen Airport

Current Time: Nov 28, 2014 at 9:59:17 PM

Latest Report: Nov 28, 2014 at 9:00 PM


Visibility: 6 mi

Pressure: 29.86 "Hg

Humidity: 70%

Dew point: 70 °F

Location of Khon KaenLocation

Historic Weather in Khon Kaen — Graph

°F

Khon Kaen temperature yesterday

Maximum temperature yesterday: 95 °F (at 2:00 PM)
Minimum temperature yesterday: 72 °F (at 6:00 AM)
Average temperature yesterday: 83 °F

Past Weeks' High & Low Weather Summary

 TemperatureHumidityPressure
High95 °F (Nov 27, 2:00 PM)94% (Nov 22, 6:00 AM)30.09 "Hg (Nov 22, 6:00 AM)
Low64 °F (Nov 19, 4:00 AM)32% (Nov 23, 2:00 PM)29.74 "Hg (Nov 26, 2:00 PM)
Average79 °F62%29.91 "Hg
* Reported Nov 13 10:00 PM — Nov 28 9:00 PM, Khon Kaen, Weather by CustomWeather, © 2014

Note: Actual official high and low records may vary slightly from our data, if they occured in-between our weather recording intervals... More about our weather records

Advertising

Khon Kaen weather history for previous 24 hours

 ConditionsComfort  
Time TempWeatherWind HumidityBarometerVisibility
9:00 PM
Nov 28
81 °FClear.No wind70%29.86 "Hg6 mi
8:00 PM84 °FClear.3 mph58%29.83 "Hg6 mi
7:00 PM84 °FClear.3 mph58%29.80 "Hg6 mi
6:00 PM86 °FClear.3 mph59%29.77 "Hg10 mi
5:00 PM90 °FPassing clouds.3 mph49%29.77 "HgN/A
4:00 PM93 °FPassing clouds.2 mph44%29.77 "HgN/A
3:00 PM91 °FScattered clouds.8 mph46%29.77 "HgN/A
2:00 PM91 °FScattered clouds.6 mph46%29.77 "HgN/A
1:00 PM95 °FScattered clouds.5 mph39%29.80 "HgN/A
12:00 PM90 °FPartly sunny.3 mph52%29.86 "HgN/A
11:00 AM90 °FPassing clouds.6 mph52%29.89 "HgN/A
10:00 AM86 °FPassing clouds.6 mph59%29.92 "HgN/A
7:00 AM73 °FClear.3 mph83%29.86 "Hg5 mi
6:00 AM72 °FClear.1 mph88%29.86 "Hg5 mi
5:00 AM72 °FClear.3 mph94%29.83 "Hg6 mi
4:00 AM73 °FClear.No wind89%29.83 "Hg6 mi
2:00 AM77 °FPassing clouds.No wind79%29.83 "Hg6 mi
1:00 AM77 °FPassing clouds.No wind83%29.83 "Hg6 mi
12:00 AM77 °FClear.No wind79%29.86 "Hg6 mi
11:00 PM
Nov 27
81 °FClear.2 mph70%29.86 "Hg6 mi
10:00 PM81 °FPassing clouds.2 mph66%29.86 "Hg6 mi
Weather by CustomWeather, © 2014

See weather overviewHow to use our weather pages